Weather Roundup
Issued by NWS Chicago, IL

Home | Current Version | Previous Version | Text Only | Print | Product List | Glossary Off
Versions: 1 2 3 4 5 6 7 8 9 10 11 12 13 14 15 16 17 18 19 20 21 22 23 24 25 26 27 28 29 30 31 32 33 34 35 36 37 38 39 40 41 42 43 44 45 46 47 48 49 50

000
NZUS59 KLOT 291504
HRRLOT

CHICAGO AREA WEATHER ROUNDUP
NATIONAL WEATHER SERVICE CHICAGO/ROMEOVILLE IL
1000 AM CDT THU JUN 29 2017

NOTE: "FAIR" INDICATES FEW OR NO CLOUDS BELOW 12,000 FEET WITH NO
SIGNIFICANT WEATHER AND/OR OBSTRUCTIONS TO VISIBILITY.

* THESE STATIONS ARE NOT UNDER NWS QUALITY CONTROL. THEY ALSO MAY NOT
  REPORT WEATHER SUCH AS PRECIPITATION OR FOG.

ILZ005-006-012>014-019>023-291600-
NORTHEAST ILLINOIS

CITY           SKY/WX    TMP DP  RH WIND       PRES   REMARKS
OHARE          CLOUDY    75  62  64 SW17G24   29.78R
MIDWAY         CLOUDY    76  62  62 SW18G30   29.79S
AURORA         CLOUDY    75  66  73 W16G22    29.81S
LANSING*       CLOUDY    77  59  53 W17G24    29.82R
JOLIET*        CLOUDY    75  64  67 W9G18     29.82S
WAUKEGAN       PTSUNNY   74  65  73 SW12G18   29.75R
DUPAGE AIRPORT CLOUDY    73  65  75 W12G23    29.79S
WHEELING       PTSUNNY   75  65  70 SW13G23   29.79R
MORRIS*        CLOUDY    74  63  66 W15       29.81S
LEWIS AIRPORT* CLOUDY    74  61  63 W14       29.82R
NORTHERLY ISL    N/A     74  59  59 SW9         N/A
$$

WIZ051-052-058>065-066-070>072-291600-
SOUTHEAST WISCONSIN

CITY           SKY/WX    TMP DP  RH WIND       PRES   REMARKS
MILWAUKEE      CLOUDY    76  66  71 W14G22    29.72S
KENOSHA*       MOSUNNY   75  65  70 W17G25    29.75R
RACINE*        MOSUNNY   75  64  68 W14G25    29.74S
WAUKESHA       CLOUDY    70  64  83 W14G21    29.75S
$$

INZ001>003-010>013-019-020-291600-
NORTHWEST INDIANA

CITY           SKY/WX    TMP DP  RH WIND       PRES   REMARKS
GARY*          PTSUNNY   79  59  50 SW17      29.81R HX  80
MICHIGAN CITY* NOT AVBL
RENSSELAER*    NOT AVBL
VALPARAISO     CLOUDY    78  66  66 SW14      29.84R HX  80
$$

LMZ740>746-291600-
SOUTHERN LAKE MICHIGAN

STATION/POSITION TIME  SKY/WX   TEMP WIND        PRES    VSBY
                                AIR  DIR/SP/G
                 (UTC)          (F)  (DEG/KT/KT) (MB)    (MI)
HARRISON CRIB    1440            74  240/ 15/ 19   N/A
BURNHAM HARBOR   1500            75                N/A
CALUMET HARBOR   1430            75  210/ 12/ 20 1008.3S
BURNS HARBOR     1440            76  210/ 12/ 22 1009.8R
MICHIGAN CITY    1440            75  200/ 18/ 22   N/A
$$

ABBREVIATIONS USED IN REMARKS
   TC - TEMPERATURE IN CELSIUS
  WCI - WIND CHILL INDEX
   HX - HEAT INDEX
  VSB - VISIBILITY
$$




USA.gov is the U.S. government's official web portal to all federal, state and local government web resources and services.